• In Hungary
  • List of Countries
  • For 7 days
  • Water Temperature
  • Satellite Maps
  • Weather Map
  • News
  • Weather Widgets
  • user-avatar
    Login

    Hourly Weather Uhta

    Today, 21 June, Thursday

    Time Temperature Precipitation Wind Pressure Humidity
    00:00 +15°C° 0.5 mm 1 mps 722 mmHg 94%
    01:00 +15°C° 0.5 mm 1 mps 722 mmHg 95%
    02:00 +14°C° 0.8 mm 1 mps 722 mmHg 94%
    03:00 +14°C° 0.8 mm 2 mps 722 mmHg 93%
    04:00 +14°C° 0.8 mm 2 mps 722 mmHg 91%
    05:00 +14°C° 0.2 mm 2 mps 722 mmHg 90%
    06:00 +14°C° 0.2 mm 2 mps 722 mmHg 89%
    07:00 +15°C° 0.2 mm 2 mps 722 mmHg 88%
    08:00 +15°C° 0.1 mm 2 mps 722 mmHg 88%
    09:00 +15°C° 0.1 mm 2 mps 723 mmHg 88%
    10:00 +15°C° 0.1 mm 2 mps 723 mmHg 87%
    11:00 +16°C° 0 mm 2 mps 724 mmHg 83%
    12:00 +18°C° 0 mm 1 mps 724 mmHg 79%
    13:00 +19°C° 0 mm 1 mps 725 mmHg 75%
    14:00 +20°C° 0.1 mm 1 mps 725 mmHg 70%
    15:00 +21°C° 0.1 mm 1 mps 725 mmHg 65%
    16:00 +22°C° 0.1 mm 1 mps 726 mmHg 60%
    17:00 +22°C° 0 mm 1 mps 726 mmHg 58%
    18:00 +22°C° 0 mm 1 mps 726 mmHg 57%
    19:00 +23°C° 0 mm 1 mps 727 mmHg 55%
    20:00 +21°C° 0 mm 2 mps 727 mmHg 61%
    21:00 +19°C° 0 mm 2 mps 728 mmHg 66%
    22:00 +18°C° 0 mm 3 mps 728 mmHg 72%
    23:00 +17°C° 0 mm 3 mps 728 mmHg 74%

    Tomorrow, 22 June, Friday

    Time Temperature Precipitation Wind Pressure Humidity
    00:00 +17°C° 0 mm 3 mps 729 mmHg 77%
    01:00 +16°C° 0 mm 2 mps 729 mmHg 79%
    02:00 +15°C° 0 mm 2 mps 730 mmHg 78%
    03:00 +15°C° 0 mm 2 mps 730 mmHg 77%
    04:00 +15°C° 0 mm 2 mps 731 mmHg 76%
    05:00 +16°C° 0 mm 3 mps 731 mmHg 69%
    06:00 +18°C° 0 mm 3 mps 732 mmHg 62%
    07:00 +20°C° 0 mm 4 mps 732 mmHg 55%
    08:00 +21°C° 0 mm 4 mps 733 mmHg 50%
    09:00 +22°C° 0 mm 5 mps 733 mmHg 45%
    10:00 +23°C° 0 mm 5 mps 734 mmHg 40%
    11:00 +25°C° 0 mm 5 mps 734 mmHg 37%
    12:00 +26°C° 0 mm 5 mps 734 mmHg 35%
    13:00 +27°C° 0 mm 5 mps 735 mmHg 33%
    14:00 +27°C° 0 mm 5 mps 735 mmHg 33%
    15:00 +27°C° 0 mm 5 mps 735 mmHg 33%
    16:00 +27°C° 0 mm 4 mps 735 mmHg 33%
    17:00 +26°C° 0 mm 4 mps 736 mmHg 35%
    18:00 +26°C° 0 mm 3 mps 736 mmHg 38%
    19:00 +25°C° 0 mm 3 mps 736 mmHg 40%
    20:00 +23°C° 0 mm 2 mps 737 mmHg 46%
    21:00 +21°C° 0 mm 2 mps 737 mmHg 52%
    22:00 +19°C° 0 mm 2 mps 737 mmHg 58%
    23:00 +18°C° 0 mm 2 mps 738 mmHg 62%

    Day after tomorrow, 23 June, Saturday

    Time Temperature Precipitation Wind Pressure Humidity
    00:00 +17°C° 0 mm 2 mps 738 mmHg 66%
    01:00 +16°C° 0 mm 2 mps 738 mmHg 70%
    02:00 +15°C° 0 mm 1 mps 739 mmHg 72%
    03:00 +15°C° 0 mm 1 mps 739 mmHg 73%
    04:00 +15°C° 0 mm 1 mps 740 mmHg 75%
    05:00 +16°C° 0 mm 2 mps 740 mmHg 68%
    06:00 +18°C° 0 mm 2 mps 740 mmHg 62%
    07:00 +19°C° 0 mm 2 mps 741 mmHg 55%
    08:00 +21°C° 0 mm 2 mps 741 mmHg 50%
    09:00 +23°C° 0 mm 2 mps 741 mmHg 46%
    10:00 +24°C° 0 mm 2 mps 741 mmHg 42%
    11:00 +25°C° 0 mm 2 mps 741 mmHg 38%
    12:00 +27°C° 0 mm 2 mps 741 mmHg 35%
    13:00 +28°C° 0 mm 2 mps 741 mmHg 32%
    14:00 +28°C° 0 mm 2 mps 741 mmHg 30%
    15:00 +28°C° 0 mm 2 mps 741 mmHg 29%
    16:00 +29°C° 0 mm 2 mps 741 mmHg 28%
    17:00 +28°C° 0 mm 2 mps 741 mmHg 30%
    18:00 +28°C° 0 mm 1 mps 742 mmHg 33%
    19:00 +27°C° 0 mm 1 mps 742 mmHg 35%
    20:00 +25°C° 0 mm 1 mps 742 mmHg 40%
    21:00 +23°C° 0 mm 1 mps 742 mmHg 45%
    22:00 +18°C° 0 mm 0 mps 742 mmHg 50%
    23:00 +18°C° 0 mm 0 mps 742 mmHg 51%

    24 June, Sunday

    Time Temperature Precipitation Wind Pressure Humidity
    00:00 +17°C° 0 mm 0 mps 742 mmHg 53%
    01:00 +16°C° 0 mm 0 mps 743 mmHg 54%
    02:00 +16°C° 0 mm 0 mps 743 mmHg 55%
    03:00 +16°C° 0 mm 0 mps 743 mmHg 56%
    04:00 +16°C° 0 mm 0 mps 743 mmHg 57%
    05:00 +18°C° 0 mm 0 mps 743 mmHg 52%
    06:00 +20°C° 0 mm 0 mps 744 mmHg 47%
    07:00 +22°C° 0 mm 0 mps 744 mmHg 42%
    08:00 +24°C° 0 mm 0 mps 744 mmHg 37%
    09:00 +27°C° 0 mm 0 mps 744 mmHg 32%
    10:00 +29°C° 0 mm 0 mps 744 mmHg 28%
    11:00 +30°C° 0 mm 0 mps 744 mmHg 26%
    12:00 +31°C° 0 mm 0 mps 743 mmHg 25%
    13:00 +32°C° 0 mm 0 mps 743 mmHg 24%
    14:00 +32°C° 0 mm 0 mps 743 mmHg 24%
    15:00 +32°C° 0 mm 0 mps 743 mmHg 25%
    16:00 +32°C° 0 mm 0 mps 743 mmHg 25%
    17:00 +31°C° 0 mm 0 mps 743 mmHg 28%
    18:00 +31°C° 0 mm 0 mps 743 mmHg 31%
    19:00 +30°C° 0 mm 0 mps 743 mmHg 33%
    20:00 +30°C° 0 mm 1 mps 743 mmHg 38%
    21:00 +27°C° 0 mm 1 mps 743 mmHg 44%
    22:00 +25°C° 0 mm 1 mps 743 mmHg 49%
    23:00 +24°C° 0 mm 1 mps 743 mmHg 51%

    25 June, Monday

    Time Temperature Precipitation Wind Pressure Humidity
    00:00 +23°C° 0 mm 1 mps 743 mmHg 54%
    01:00 +22°C° 0 mm 1 mps 743 mmHg 56%
    02:00 +22°C° 0 mm 1 mps 743 mmHg 59%
    03:00 +22°C° 0 mm 1 mps 743 mmHg 61%
    04:00 +22°C° 0 mm 1 mps 743 mmHg 64%
    05:00 +24°C° 0 mm 1 mps 743 mmHg 60%
    06:00 +26°C° 0 mm 1 mps 743 mmHg 57%
    07:00 +26°C° 0 mm 0 mps 743 mmHg 53%
    08:00 +30°C° 0 mm 1 mps 743 mmHg 48%
    09:00 +32°C° 0 mm 1 mps 743 mmHg 43%
    10:00 +33°C° 0 mm 1 mps 743 mmHg 38%
    11:00 +33°C° 0 mm 1 mps 743 mmHg 38%
    12:00 +33°C° 0 mm 1 mps 743 mmHg 38%
    13:00 +33°C° 0 mm 1 mps 743 mmHg 38%
    14:00 +33°C° 0 mm 1 mps 743 mmHg 38%
    15:00 +33°C° 0 mm 1 mps 743 mmHg 39%
    16:00 +33°C° 0 mm 1 mps 743 mmHg 39%
    17:00 +32°C° 0 mm 1 mps 743 mmHg 41%
    18:00 +32°C° 0 mm 1 mps 743 mmHg 43%
    19:00 +31°C° 0 mm 1 mps 743 mmHg 45%
    20:00 +29°C° 0 mm 1 mps 743 mmHg 50%
    21:00 +28°C° 0 mm 1 mps 743 mmHg 55%
    22:00 +26°C° 0 mm 1 mps 743 mmHg 61%
    23:00 +25°C° 0.1 mm 1 mps 743 mmHg 65%

    26 June, Tuesday

    Time Temperature Precipitation Wind Pressure Humidity
    00:00 +24°C° 0.1 mm 1 mps 743 mmHg 69%
    01:00 +23°C° 0.1 mm 1 mps 743 mmHg 73%
    02:00 +23°C° 0.7 mm 1 mps 743 mmHg 77%
    03:00 +22°C° 0.7 mm 1 mps 743 mmHg 80%
    04:00 +22°C° 0.7 mm 1 mps 744 mmHg 83%
    05:00 +22°C° 0.1 mm 1 mps 744 mmHg 82%
    06:00 +23°C° 0.1 mm 2 mps 744 mmHg 80%
    07:00 +24°C° 0.1 mm 2 mps 744 mmHg 78%
    08:00 +25°C° 0.2 mm 2 mps 744 mmHg 73%
    09:00 +26°C° 0.2 mm 3 mps 744 mmHg 68%
    10:00 +28°C° 0.2 mm 3 mps 744 mmHg 62%
    11:00 +28°C° 0 mm 3 mps 744 mmHg 59%
    12:00 +29°C° 0 mm 3 mps 744 mmHg 55%
    13:00 +30°C° 0 mm 3 mps 744 mmHg 51%
    14:00 +30°C° 0 mm 3 mps 743 mmHg 49%
    15:00 +30°C° 0 mm 3 mps 743 mmHg 47%
    16:00 +30°C° 0 mm 3 mps 743 mmHg 45%
    17:00 +29°C° 0 mm 3 mps 743 mmHg 47%
    18:00 +29°C° 0 mm 3 mps 743 mmHg 49%
    19:00 +28°C° 0 mm 3 mps 743 mmHg 50%
    20:00 +27°C° 0 mm 3 mps 743 mmHg 54%
    21:00 +26°C° 0 mm 3 mps 743 mmHg 58%
    22:00 +24°C° 0 mm 3 mps 743 mmHg 61%
    23:00 +22°C° 0 mm 3 mps 743 mmHg 64%
    Show more